TimeEDT,TemperatureF,Dew PointF,Humidity,Sea Level PressureIn,VisibilityMPH,Wind Direction,Wind SpeedMPH,Gust SpeedMPH,PrecipitationIn,Events,Conditions,WindDirDegrees,DateUTC
12:15 AM,46.4,45.5,97,30.09,10.0,Calm,Calm,-,0.01,,Clear,0,2013-10-08 04:15:00
12:35 AM,46.4,45.5,97,30.09,10.0,Calm,Calm,-,0.01,,Clear,0,2013-10-08 04:35:00
12:55 AM,46.0,45.5,98,30.09,10.0,Calm,Calm,-,0.01,,Clear,0,2013-10-08 04:55:00
1:15 AM,45.5,44.8,97,30.09,10.0,Calm,Calm,-,N/A,,Clear,0,2013-10-08 05:15:00
1:35 AM,45.1,44.6,98,30.09,10.0,Calm,Calm,-,N/A,,Mostly Cloudy,0,2013-10-08 05:35:00
1:55 AM,45.5,45.0,98,30.09,10.0,Calm,Calm,-,0.01,,Overcast,0,2013-10-08 05:55:00
2:15 AM,46.6,45.9,97,30.09,10.0,Calm,Calm,-,N/A,,Overcast,0,2013-10-08 06:15:00
2:35 AM,46.8,46.4,99,30.10,0.8,Calm,Calm,-,N/A,,Overcast,0,2013-10-08 06:35:00
2:55 AM,46.6,46.0,98,30.10,0.2,Calm,Calm,-,N/A,Fog,Fog,0,2013-10-08 06:55:00
3:15 AM,46.4,45.9,98,30.10,0.2,Calm,Calm,-,N/A,Fog,Fog,0,2013-10-08 07:15:00
3:35 AM,45.5,45.0,98,30.09,0.5,Calm,Calm,-,N/A,Fog,Fog,0,2013-10-08 07:35:00
3:55 AM,45.9,45.1,97,30.09,0.5,Calm,Calm,-,N/A,Fog,Fog,0,2013-10-08 07:55:00
4:15 AM,45.7,45.0,97,30.09,0.5,Calm,Calm,-,N/A,Fog,Fog,0,2013-10-08 08:15:00
4:35 AM,45.1,44.6,98,30.10,1.8,Calm,Calm,-,N/A,,Overcast,0,2013-10-08 08:35:00
4:55 AM,45.5,44.6,97,30.11,10.0,Calm,Calm,-,N/A,,Overcast,0,2013-10-08 08:55:00
5:15 AM,45.7,45.0,97,30.12,10.0,Calm,Calm,-,0.01,,Overcast,0,2013-10-08 09:15:00
5:35 AM,46.0,45.5,98,30.12,10.0,Calm,Calm,-,0.01,,Overcast,0,2013-10-08 09:35:00
5:55 AM,46.8,46.0,97,30.12,10.0,Calm,Calm,-,0.01,,Overcast,0,2013-10-08 09:55:00
6:15 AM,47.3,46.4,97,30.12,10.0,Calm,Calm,-,N/A,,Overcast,0,2013-10-08 10:15:00
6:35 AM,47.3,46.6,97,30.13,10.0,Calm,Calm,-,N/A,,Overcast,0,2013-10-08 10:35:00
6:55 AM,47.7,46.9,97,30.13,10.0,Calm,Calm,-,N/A,,Overcast,0,2013-10-08 10:55:00
7:15 AM,47.8,47.1,97,30.14,10.0,Calm,Calm,-,N/A,,Overcast,0,2013-10-08 11:15:00
7:35 AM,47.8,47.3,98,30.14,10.0,Calm,Calm,-,N/A,,Overcast,0,2013-10-08 11:35:00
7:55 AM,47.8,47.3,98,30.15,10.0,Calm,Calm,-,N/A,,Overcast,0,2013-10-08 11:55:00
8:15 AM,47.5,46.9,98,30.16,10.0,Calm,Calm,-,N/A,,Overcast,0,2013-10-08 12:15:00
8:35 AM,47.8,47.1,97,30.16,10.0,Calm,Calm,-,N/A,,Overcast,0,2013-10-08 12:35:00
8:55 AM,48.2,47.3,97,30.17,10.0,Calm,Calm,-,N/A,,Overcast,0,2013-10-08 12:55:00
9:15 AM,48.6,47.8,97,30.17,10.0,Calm,Calm,-,0.01,,Overcast,0,2013-10-08 13:15:00
9:35 AM,48.7,48.0,97,30.18,10.0,Calm,Calm,-,0.01,,Overcast,0,2013-10-08 13:35:00
9:55 AM,49.5,48.2,95,30.18,10.0,Calm,Calm,-,0.01,,Overcast,0,2013-10-08 13:55:00
10:15 AM,50.4,48.6,94,30.18,10.0,Calm,Calm,-,N/A,,Overcast,0,2013-10-08 14:15:00
10:35 AM,51.1,48.7,92,30.18,10.0,Calm,Calm,-,N/A,,Overcast,0,2013-10-08 14:35:00
10:55 AM,53.6,49.1,85,30.18,10.0,Calm,Calm,-,N/A,,Scattered Clouds,0,2013-10-08 14:55:00
11:15 AM,56.7,47.8,72,30.17,10.0,Calm,Calm,-,N/A,,Clear,0,2013-10-08 15:15:00
11:35 AM,60.1,47.8,64,30.17,10.0,Calm,Calm,-,N/A,,Clear,0,2013-10-08 15:35:00
11:55 AM,62.1,45.1,54,30.16,10.0,Calm,Calm,-,N/A,,Clear,0,2013-10-08 15:55:00
12:15 PM,64.0,47.8,56,30.16,10.0,Calm,Calm,-,N/A,,Clear,0,2013-10-08 16:15:00
12:35 PM,66.0,47.8,52,30.16,10.0,Calm,Calm,-,0.01,,Clear,0,2013-10-08 16:35:00
12:55 PM,66.9,47.3,49,30.15,10.0,Calm,Calm,-,0.01,,Clear,0,2013-10-08 16:55:00
1:15 PM,67.8,48.2,49,30.15,10.0,Calm,Calm,-,N/A,,Clear,0,2013-10-08 17:15:00
1:35 PM,68.7,48.0,48,30.14,10.0,Calm,Calm,-,N/A,,Clear,0,2013-10-08 17:35:00
1:55 PM,70.2,50.0,49,30.13,10.0,Calm,Calm,-,N/A,,Clear,0,2013-10-08 17:55:00
2:15 PM,71.8,51.1,48,30.12,10.0,Calm,Calm,-,0.01,,Clear,0,2013-10-08 18:15:00
2:35 PM,71.8,50.2,46,30.12,10.0,Calm,Calm,-,0.01,,Clear,0,2013-10-08 18:35:00
2:55 PM,72.5,50.5,46,30.11,7.0,Calm,Calm,-,0.01,,Clear,0,2013-10-08 18:55:00
3:15 PM,72.9,51.3,47,30.11,10.0,Calm,Calm,-,N/A,,Clear,0,2013-10-08 19:15:00
3:35 PM,72.9,51.6,47,30.11,10.0,Calm,Calm,-,N/A,,Clear,0,2013-10-08 19:35:00
3:55 PM,73.4,51.8,47,30.11,10.0,Calm,Calm,-,0.01,,Clear,0,2013-10-08 19:55:00
4:15 PM,73.4,51.8,47,30.11,10.0,SSE,4.6,-,N/A,,Clear,150,2013-10-08 20:15:00
4:35 PM,72.9,53.1,50,30.11,10.0,SSW,4.6,-,N/A,,Clear,200,2013-10-08 20:35:00
4:55 PM,72.3,53.4,51,30.11,10.0,South,4.6,-,N/A,,Clear,170,2013-10-08 20:55:00
5:15 PM,71.1,52.3,52,30.12,10.0,South,3.5,-,N/A,,Clear,170,2013-10-08 21:15:00
5:35 PM,70.0,52.2,53,30.13,10.0,SSE,3.5,-,N/A,,Clear,160,2013-10-08 21:35:00
5:55 PM,68.9,52.0,55,30.14,10.0,SSE,4.6,-,0.01,,Scattered Clouds,160,2013-10-08 21:55:00
6:15 PM,67.1,52.2,59,30.14,10.0,Calm,Calm,-,N/A,,Mostly Cloudy,0,2013-10-08 22:15:00
6:35 PM,65.8,52.2,61,30.15,10.0,Calm,Calm,-,N/A,,Scattered Clouds,0,2013-10-08 22:35:00
6:55 PM,64.4,51.6,63,30.16,10.0,Calm,Calm,-,N/A,,Scattered Clouds,0,2013-10-08 22:55:00
7:15 PM,63.5,51.1,64,30.16,10.0,Calm,Calm,-,N/A,,Clear,0,2013-10-08 23:15:00
7:35 PM,62.2,50.7,66,30.17,10.0,Calm,Calm,-,N/A,,Clear,0,2013-10-08 23:35:00
7:55 PM,61.5,50.5,67,30.18,10.0,Calm,Calm,-,N/A,,Clear,0,2013-10-08 23:55:00
8:15 PM,58.6,51.8,78,30.18,10.0,Calm,Calm,-,N/A,,Clear,0,2013-10-09 00:15:00
8:35 PM,56.3,52.0,85,30.20,10.0,Calm,Calm,-,N/A,,Clear,0,2013-10-09 00:35:00
8:55 PM,54.9,51.4,88,30.20,10.0,Calm,Calm,-,N/A,,Clear,0,2013-10-09 00:55:00
9:15 PM,53.8,51.1,91,30.21,10.0,Calm,Calm,-,N/A,,Clear,0,2013-10-09 01:15:00
9:35 PM,53.1,50.9,92,30.21,10.0,Calm,Calm,-,N/A,,Clear,0,2013-10-09 01:35:00
9:55 PM,51.8,50.0,94,30.22,10.0,Calm,Calm,-,0.01,,Clear,0,2013-10-09 01:55:00
10:15 PM,50.7,49.3,95,30.23,10.0,Calm,Calm,-,N/A,,Clear,0,2013-10-09 02:15:00
10:35 PM,51.1,50.0,96,30.23,10.0,Calm,Calm,-,N/A,,Clear,0,2013-10-09 02:35:00
10:55 PM,50.4,49.3,96,30.23,10.0,Calm,Calm,-,N/A,,Clear,0,2013-10-09 02:55:00
11:15 PM,49.6,48.7,97,30.23,10.0,Calm,Calm,-,N/A,,Clear,0,2013-10-09 03:15:00
11:35 PM,49.3,48.6,97,30.22,10.0,Calm,Calm,-,N/A,,Clear,0,2013-10-09 03:35:00
11:55 PM,48.7,48.0,97,30.22,7.0,Calm,Calm,-,N/A,,Clear,0,2013-10-09 03:55:00